TimeEDT,TemperatureF,Dew PointF,Humidity,Sea Level PressureIn,VisibilityMPH,Wind Direction,Wind SpeedMPH,Gust SpeedMPH,PrecipitationIn,Events,Conditions,WindDirDegrees,DateUTC
12:15 AM,77.0,73.4,89,30.09,10.0,Calm,Calm,-,N/A,,Clear,0,2013-06-11 04:15:00
12:35 AM,75.2,73.4,94,30.09,10.0,Calm,Calm,-,N/A,,Clear,0,2013-06-11 04:35:00
12:55 AM,75.2,73.4,94,30.09,10.0,SE,3.5,-,N/A,,Clear,140,2013-06-11 04:55:00
1:15 AM,75.2,73.4,94,30.09,10.0,ESE,3.5,-,N/A,,Clear,120,2013-06-11 05:15:00
1:35 AM,73.4,73.4,100,30.08,10.0,East,3.5,-,N/A,,Clear,100,2013-06-11 05:35:00
1:55 AM,73.4,73.4,100,30.08,10.0,ESE,3.5,-,N/A,,Clear,110,2013-06-11 05:55:00
2:15 AM,73.4,73.4,100,30.07,7.0,ESE,3.5,-,N/A,,Clear,120,2013-06-11 06:15:00
2:35 AM,73.4,73.4,100,30.07,7.0,Calm,Calm,-,N/A,,Clear,0,2013-06-11 06:35:00
2:55 AM,73.4,73.4,100,30.07,7.0,Calm,Calm,-,N/A,,Clear,0,2013-06-11 06:55:00
3:15 AM,73.4,73.4,100,30.05,7.0,Calm,Calm,-,N/A,,Clear,0,2013-06-11 07:15:00
3:35 AM,73.4,73.4,100,30.05,5.0,Calm,Calm,-,N/A,,Clear,0,2013-06-11 07:35:00
3:55 AM,73.4,73.4,100,30.04,5.0,Calm,Calm,-,N/A,,Clear,0,2013-06-11 07:55:00
4:15 AM,73.4,71.6,94,30.04,5.0,Calm,Calm,-,N/A,,Clear,0,2013-06-11 08:15:00
12:15 PM,86.0,73.4,66,30.10,10.0,SSW,5.8,-,N/A,,Clear,200,2013-06-11 16:15:00
12:35 PM,86.0,73.4,66,30.09,10.0,SSW,6.9,-,N/A,,Clear,210,2013-06-11 16:35:00
12:55 PM,87.8,71.6,58,30.09,10.0,SW,3.5,-,N/A,,Clear,230,2013-06-11 16:55:00
1:15 PM,87.8,73.4,62,30.08,10.0,SSW,3.5,-,N/A,,Clear,200,2013-06-11 17:15:00
1:35 PM,87.8,71.6,58,30.08,10.0,Calm,Calm,-,N/A,,Clear,0,2013-06-11 17:35:00
1:55 PM,87.8,71.6,58,30.07,10.0,South,4.6,-,N/A,Thunderstorm,Clear,180,2013-06-11 17:55:00
2:15 PM,87.8,71.6,58,30.07,10.0,SE,3.5,-,N/A,Thunderstorm,Clear,140,2013-06-11 18:15:00
2:35 PM,86.0,71.6,62,30.05,10.0,East,8.1,-,N/A,Thunderstorm,Clear,100,2013-06-11 18:35:00
2:55 PM,87.8,71.6,58,30.06,10.0,ESE,9.2,-,N/A,,Clear,110,2013-06-11 18:55:00
3:15 PM,87.8,71.6,58,30.05,10.0,East,6.9,-,N/A,,Clear,90,2013-06-11 19:15:00
3:35 PM,87.8,68.0,52,30.05,10.0,ENE,10.4,16.1,N/A,,Clear,70,2013-06-11 19:35:00
3:55 PM,82.4,69.8,66,30.05,10.0,NE,9.2,-,N/A,,Clear,50,2013-06-11 19:55:00
4:15 PM,82.4,69.8,66,30.05,10.0,East,6.9,-,N/A,,Clear,80,2013-06-11 20:15:00
4:35 PM,80.6,71.6,74,30.05,10.0,NE,5.8,-,N/A,,Clear,50,2013-06-11 20:35:00
4:55 PM,78.8,69.8,74,30.04,10.0,NE,6.9,-,N/A,,Clear,50,2013-06-11 20:55:00
5:15 PM,78.8,69.8,74,30.04,10.0,ENE,6.9,-,N/A,,Clear,60,2013-06-11 21:15:00
5:35 PM,77.0,69.8,78,30.04,10.0,ENE,5.8,-,N/A,,Clear,70,2013-06-11 21:35:00
5:55 PM,77.0,69.8,78,30.06,10.0,North,6.9,-,N/A,,Mostly Cloudy,350,2013-06-11 21:55:00
6:15 PM,77.0,69.8,78,30.08,10.0,NNE,4.6,-,N/A,,Mostly Cloudy,30,2013-06-11 22:15:00
6:35 PM,75.2,71.6,89,30.08,10.0,North,3.5,-,N/A,Rain,Light Rain,360,2013-06-11 22:35:00
6:55 PM,73.4,71.6,94,30.06,10.0,North,5.8,-,N/A,Rain,Light Rain,10,2013-06-11 22:55:00
7:15 PM,73.4,71.6,94,30.07,10.0,NNE,5.8,-,0.01,Rain,Rain,20,2013-06-11 23:15:00
7:35 PM,73.4,71.6,94,30.07,10.0,NW,3.5,-,0.03,Rain,Light Rain,310,2013-06-11 23:35:00
7:55 PM,71.6,69.8,94,30.06,10.0,NW,3.5,-,0.04,Rain,Light Rain,320,2013-06-11 23:55:00
8:15 PM,71.6,71.6,100,30.06,10.0,Calm,Calm,-,N/A,,Light Drizzle,0,2013-06-12 00:15:00
8:35 PM,71.6,71.6,100,30.05,10.0,Calm,Calm,-,N/A,,Clear,0,2013-06-12 00:35:00
8:55 PM,71.6,71.6,100,30.04,10.0,East,3.5,-,N/A,,Clear,90,2013-06-12 00:55:00
9:15 PM,71.6,71.6,100,30.03,10.0,SE,4.6,-,N/A,,Clear,130,2013-06-12 01:15:00
9:35 PM,71.6,71.6,100,30.04,10.0,NE,3.5,-,N/A,,Clear,40,2013-06-12 01:35:00
9:55 PM,71.6,71.6,100,30.04,10.0,ESE,3.5,-,N/A,,Clear,120,2013-06-12 01:55:00
10:15 PM,71.6,71.6,100,30.05,10.0,NNE,11.5,-,N/A,,Clear,20,2013-06-12 02:15:00
10:35 PM,73.4,71.6,94,30.07,10.0,NNE,8.1,-,N/A,,Scattered Clouds,20,2013-06-12 02:35:00
10:55 PM,73.4,71.6,94,30.07,10.0,NNE,10.4,-,N/A,,Mostly Cloudy,30,2013-06-12 02:55:00
11:15 PM,73.4,71.6,94,30.08,10.0,East,5.8,-,N/A,,Mostly Cloudy,80,2013-06-12 03:15:00
11:35 PM,73.4,71.6,94,30.07,10.0,ESE,4.6,-,N/A,,Scattered Clouds,120,2013-06-12 03:35:00
11:55 PM,73.4,71.6,94,30.06,10.0,South,5.8,-,N/A,,Clear,170,2013-06-12 03:55:00